Location: San Martino di Castrozza
(46.2667°N, 11.8000°E)
Time: 17:41:16
(UTC+00:00)

Cosmos 1953 - Pass Details

Date: 07 August 2021
Orbit: 538 x 556 km, 82.5° (Epoch: 18 September)

Event Time Altitude Azimuth Distance (km) Brightness Sun altitude
Exits shadow 01:55:24 - 146° (SE) 2,610 5.6 -18.1°
Reaches altitude 10° 01:57:50 10° 128° (SE) 1,825 5.0 -17.8°
Maximum altitude 02:00:29 17° 86° (E) 1,422 5.0 -17.5°
Drops below altitude 10° 02:03:09 10° 45° (NE) 1,828 6.3 -17.2°
Sets 02:05:53 0° 25° (NNE) 2,723 7.3 -16.9°
